TimePST,TemperatureF,Dew PointF,Humidity,Sea Level PressureIn,VisibilityMPH,Wind Direction,Wind SpeedMPH,Gust SpeedMPH,PrecipitationIn,Events,Conditions,WindDirDegrees,DateUTC
12:53 AM,52.0,48.9,89,29.55,4.0,SSE,16.1,27.6,0.00,Rain,Light Rain,150,2012-11-29 08:53:00
1:53 AM,53.1,46.9,80,29.52,4.0,SSE,15.0,31.1,0.01,Rain,Light Rain,150,2012-11-29 09:53:00
2:53 AM,53.1,46.9,80,29.49,7.0,SSE,15.0,29.9,0.01,,Overcast,150,2012-11-29 10:53:00
3:53 AM,53.6,46.4,77,29.45,6.0,SSE,12.7,26.5,N/A,Rain,Light Rain,150,2012-11-29 11:53:00
4:53 AM,53.1,46.9,80,29.42,5.0,SE,17.3,27.6,0.02,Rain,Light Rain,140,2012-11-29 12:53:00
5:24 AM,51.8,48.2,88,29.42,2.5,SSE,16.1,27.6,0.04,Rain,Rain,150,2012-11-29 13:24:00
5:53 AM,51.1,48.0,89,29.41,2.5,SE,11.5,25.3,0.09,Rain,Light Rain,140,2012-11-29 13:53:00
6:10 AM,51.8,48.2,88,29.41,3.0,SE,15.0,29.9,0.03,Rain,Light Rain,140,2012-11-29 14:10:00
6:18 AM,51.8,48.2,88,29.40,2.5,SE,15.0,33.4,0.05,Rain,Light Rain,130,2012-11-29 14:18:00
6:49 AM,51.8,48.2,88,29.40,3.0,SE,18.4,28.8,0.09,Rain,Light Rain,140,2012-11-29 14:49:00
6:53 AM,51.1,48.0,89,29.41,4.0,SE,16.1,28.8,0.10,Rain,Light Rain,140,2012-11-29 14:53:00
7:24 AM,51.8,48.2,88,29.42,2.5,SSE,10.4,26.5,0.04,Rain,Rain,160,2012-11-29 15:24:00
7:53 AM,51.8,48.2,88,29.43,2.0,SSE,11.5,33.4,N/A,Rain,Rain,160,2012-11-29 15:53:00
8:07 AM,50.0,48.2,94,29.44,1.8,SSE,13.8,31.1,0.06,Rain,Rain,150,2012-11-29 16:07:00
8:20 AM,50.0,48.2,94,29.44,1.2,South,13.8,24.2,N/A,Rain,Rain,170,2012-11-29 16:20:00
8:30 AM,50.0,48.2,94,29.44,1.2,SSW,10.4,-,0.19,Rain,Rain,210,2012-11-29 16:30:00
8:53 AM,50.0,48.0,93,29.44,1.2,South,15.0,27.6,0.24,Rain,Light Rain,180,2012-11-29 16:53:00
9:00 AM,50.0,48.2,94,29.45,1.0,South,10.4,24.2,0.01,Rain,Light Rain,190,2012-11-29 17:00:00
9:07 AM,50.0,48.2,94,29.45,0.5,South,12.7,26.5,0.05,Fog-Rain,Rain,180,2012-11-29 17:07:00
9:13 AM,50.0,48.2,94,29.45,1.0,South,11.5,26.5,0.06,Rain,Light Rain,170,2012-11-29 17:13:00
9:26 AM,50.0,48.2,94,29.46,2.0,South,12.7,23.0,0.07,Rain,Light Rain,170,2012-11-29 17:26:00
9:36 AM,50.0,48.2,94,29.47,5.0,SSE,11.5,23.0,0.07,Rain,Light Rain,160,2012-11-29 17:36:00
9:50 AM,50.0,48.2,94,29.47,2.5,South,11.5,21.9,0.07,Rain,Light Rain,180,2012-11-29 17:50:00
9:53 AM,50.0,48.0,93,29.48,2.0,SSW,10.4,21.9,0.07,Rain,Light Rain,200,2012-11-29 17:53:00
10:03 AM,50.0,48.2,94,29.48,5.0,South,8.1,17.3,0.00,Rain,Light Rain,190,2012-11-29 18:03:00
10:33 AM,51.8,48.2,88,29.49,4.0,SSE,11.5,23.0,0.00,,Mostly Cloudy,160,2012-11-29 18:33:00
10:45 AM,51.8,48.2,88,29.49,4.0,South,8.1,-,0.00,Rain,Light Rain,180,2012-11-29 18:45:00
10:53 AM,51.1,48.9,92,29.49,4.0,South,9.2,18.4,0.00,,Mostly Cloudy,180,2012-11-29 18:53:00
11:01 AM,51.8,48.2,88,29.50,3.0,South,9.2,19.6,N/A,,Overcast,180,2012-11-29 19:01:00
11:08 AM,51.8,48.2,88,29.49,3.0,South,11.5,21.9,N/A,,Overcast,180,2012-11-29 19:08:00
11:37 AM,51.8,50.0,94,29.49,2.5,South,12.7,25.3,N/A,,Overcast,180,2012-11-29 19:37:00
11:42 AM,51.8,50.0,94,29.49,3.0,South,11.5,25.3,N/A,,Mostly Cloudy,180,2012-11-29 19:42:00
11:53 AM,52.0,50.0,93,29.49,3.0,South,9.2,24.2,N/A,,Overcast,180,2012-11-29 19:53:00
12:14 PM,51.8,48.2,88,29.49,3.0,South,10.4,23.0,N/A,,Overcast,180,2012-11-29 20:14:00
12:21 PM,51.8,50.0,94,29.49,2.0,South,8.1,17.3,0.00,Rain,Light Rain,170,2012-11-29 20:21:00
12:32 PM,51.8,48.2,88,29.49,1.2,South,8.1,23.0,0.00,Rain,Light Rain,180,2012-11-29 20:32:00
12:40 PM,51.8,50.0,94,29.48,0.5,South,8.1,-,0.06,Fog-Rain,Rain,180,2012-11-29 20:40:00
12:46 PM,51.8,50.0,94,29.48,1.5,South,8.1,19.6,0.06,Rain,Light Rain,180,2012-11-29 20:46:00
12:49 PM,51.8,50.0,94,29.48,3.0,South,11.5,21.9,0.06,Rain,Light Rain,170,2012-11-29 20:49:00
12:53 PM,52.0,50.0,93,29.48,3.0,South,10.4,21.9,0.06,,Overcast,170,2012-11-29 20:53:00
1:07 PM,51.8,50.0,94,29.48,1.8,South,11.5,26.5,0.00,Rain,Light Rain,180,2012-11-29 21:07:00
1:14 PM,51.8,50.0,94,29.48,1.5,South,11.5,26.5,0.01,Rain,Light Rain,170,2012-11-29 21:14:00
1:18 PM,51.8,50.0,94,29.48,3.0,South,12.7,20.7,0.01,Rain,Light Rain,170,2012-11-29 21:18:00
1:20 PM,51.8,50.0,94,29.48,2.5,SSE,10.4,20.7,0.01,,Overcast,160,2012-11-29 21:20:00
1:31 PM,51.8,50.0,94,29.48,3.0,South,10.4,26.5,0.01,Rain,Light Rain,170,2012-11-29 21:31:00
1:53 PM,52.0,50.0,93,29.47,4.0,SSE,10.4,21.9,0.01,,Overcast,160,2012-11-29 21:53:00
2:49 PM,51.8,50.0,94,29.46,3.0,South,10.4,25.3,N/A,,Overcast,180,2012-11-29 22:49:00
2:53 PM,52.0,50.0,93,29.46,3.0,South,11.5,16.1,N/A,,Overcast,180,2012-11-29 22:53:00
3:07 PM,51.8,50.0,94,29.46,1.8,South,12.7,26.5,0.00,Rain,Light Rain,170,2012-11-29 23:07:00
3:14 PM,51.8,50.0,94,29.46,1.0,South,8.1,31.1,0.01,Rain,Light Rain,180,2012-11-29 23:14:00
3:19 PM,51.8,50.0,94,29.45,2.0,SSE,10.4,28.8,0.01,Rain,Light Rain,160,2012-11-29 23:19:00
3:27 PM,51.8,50.0,94,29.45,4.0,SSE,10.4,17.3,0.01,,Overcast,160,2012-11-29 23:27:00
3:43 PM,51.8,48.2,88,29.45,1.8,SSE,10.4,17.3,0.02,Rain,Rain,150,2012-11-29 23:43:00
3:46 PM,51.8,48.2,88,29.45,1.2,SSE,10.4,17.3,0.04,Rain,Rain,150,2012-11-29 23:46:00
3:53 PM,51.1,48.9,92,29.45,1.2,SSE,6.9,16.1,0.05,Rain,Light Rain,150,2012-11-29 23:53:00
4:19 PM,50.0,48.2,94,29.44,0.8,SSE,9.2,17.3,0.07,Rain,Light Rain,150,2012-11-30 00:19:00
4:21 PM,50.0,48.2,94,29.44,0.8,SSE,6.9,17.3,0.08,Rain,Light Rain,150,2012-11-30 00:21:00
4:24 PM,50.0,48.2,94,29.44,0.8,SE,9.2,16.1,0.08,Rain,Light Rain,140,2012-11-30 00:24:00
4:26 PM,50.0,48.2,94,29.44,1.0,SE,6.9,16.1,0.09,Rain,Light Rain,140,2012-11-30 00:26:00
4:31 PM,50.0,48.2,94,29.44,2.0,SE,9.2,16.1,0.09,Rain,Light Rain,140,2012-11-30 00:31:00
4:38 PM,50.0,48.2,94,29.43,4.0,SSE,6.9,18.4,0.09,Rain,Light Rain,150,2012-11-30 00:38:00
4:53 PM,50.0,48.9,96,29.43,6.0,SSE,11.5,18.4,0.09,Rain,Light Rain,150,2012-11-30 00:53:00
5:43 PM,51.8,48.2,88,29.42,6.0,SE,9.2,18.4,0.01,Rain,Light Rain,140,2012-11-30 01:43:00
5:53 PM,51.1,48.0,89,29.42,6.0,SSE,8.1,23.0,0.01,Rain,Light Rain,150,2012-11-30 01:53:00
6:24 PM,50.0,48.2,94,29.42,2.5,SSE,6.9,-,0.01,Rain,Light Rain,160,2012-11-30 02:24:00
6:31 PM,50.0,48.2,94,29.42,3.0,SSE,6.9,-,0.02,Rain,Light Rain,150,2012-11-30 02:31:00
6:53 PM,50.0,48.0,93,29.41,7.0,SSE,8.1,-,0.03,,Overcast,160,2012-11-30 02:53:00
7:53 PM,48.9,46.9,93,29.39,2.5,SE,8.1,-,0.04,Rain,Rain,130,2012-11-30 03:53:00
8:08 PM,48.2,46.4,93,29.39,3.0,SE,6.9,-,0.01,Rain,Light Rain,130,2012-11-30 04:08:00
8:53 PM,50.0,48.0,93,29.38,7.0,SE,12.7,19.6,0.02,,Overcast,140,2012-11-30 04:53:00
9:49 PM,50.0,46.4,87,29.36,7.0,SE,9.2,18.4,N/A,,Overcast,140,2012-11-30 05:49:00
9:53 PM,50.0,46.9,89,29.36,7.0,SE,11.5,18.4,N/A,,Overcast,140,2012-11-30 05:53:00
10:53 PM,51.1,46.9,86,29.35,5.0,SSE,8.1,20.7,0.00,Rain,Light Rain,150,2012-11-30 06:53:00
11:44 PM,50.0,48.2,94,29.33,2.5,SSE,11.5,20.7,0.04,Rain,Light Rain,150,2012-11-30 07:44:00
11:53 PM,50.0,48.0,93,29.33,4.0,SSE,8.1,18.4,0.05,Rain,Light Rain,150,2012-11-30 07:53:00